[[{"header":{"parameterUnit":"m.s-1","parameterCategory":2,"la1":30.2991,"la2":30.254,"lo1":-89.0895,"lo2":-89.0444,"dy":0.0017,"dx":0.0017,"nx":28,"ny":28,"refTime":"2025-04-13T09:00:00:Z","depth":"0","parameterNumber":2,"parameterNumberName":"U-component_of_CURRENTS"},"data":[0,0,0,0,0,0,0,0,0,0,0,0,0,0,0,0,0,0,0,0,0,0,0,0,0,0,0,0,0,0,0,0,0,0,0,0,0,0,0,0,0,0,0,0,0,0,0,0,0,0,0,0,0,0,0,0,0,0,0.2215,0.2215,0,0.2202,0.2202,0.2202,0.218,0.218,0.218,0.218,0.2154,0.2154,0.2154,0,0,0,0,0,0,0,0,0,0,0,0,0,0.2225,0.2225,0.2215,0.2215,0.2215,0.2202,0.2202,0.2201,0.218,0.218,0.218,0.2179,0.2155,0.2154,0.2154,0,0,0,0,0,0,0,0,0,0,0,0,0,0.2216,0.2225,0.2215,0.2204,0.2203,0.2202,0.2202,0.2201,0.218,0.218,0.218,0.2179,0.2155,0.2154,0.2153,0.2156,0,0,0.2151,0.2151,0,0,0,0,0,0,0,0,0.2216,0.2215,0.2206,0.2205,0.2204,0.2194,0.2197,0.2186,0.218,0.2187,0.218,0.2179,0.2168,0.2166,0.2162,0.2155,0.2154,0.2151,0.2151,0.2151,0.215,0,0,0,0,0,0,0,0.2217,0.2216,0.2208,0.2206,0.2205,0.2202,0.22,0.2194,0.2178,0.2186,0.2185,0.2187,0.2167,0.2163,0.2161,0.2153,0.2151,0.2151,0.215,0.215,0.2211,0.2213,0,0,0,0,0,0,0.2222,0.2216,0.2208,0.2208,0.2212,0.2202,0.22,0.2196,0.2178,0.2176,0.2187,0.2186,0.2164,0.2162,0.216,0.2205,0.2151,0.215,0.215,0.2209,0.2212,0.2214,0,0,0,0,0,0,0.2223,0.2222,0.2209,0.2213,0.2212,0.2202,0.2198,0.2196,0.2194,0.2179,0.2176,0.2189,0.2164,0.2161,0.2163,0.2202,0.215,0.2149,0.2207,0.221,0.2213,0.2267,0,0,0,0,0,0,0.2223,0.2222,0.2221,0.2214,0.2212,0.2211,0.2199,0.2196,0.2197,0.2195,0.218,0.2177,0.2163,0.2164,0.2162,0.22,0.2148,0.2204,0.2208,0.2212,0.2263,0.2272,0.2279,0,0,0,0,0,0.2223,0.2222,0.2221,0.222,0.2211,0.2212,0.2211,0.2201,0.2197,0.2198,0.2191,0.2177,0.2188,0.2164,0.2162,0.2201,0.2202,0.2207,0.2212,0.2259,0.227,0.2279,0,0,0,0,0,0,0.2225,0.222,0.2219,0.2216,0.2217,0.2209,0.2209,0.2207,0.2202,0.22,0.2185,0.2182,0.2206,0.2196,0.217,0.2234,0.2201,0.2205,0.2238,0.2248,0.2256,0.2297,0.2148,0,0,0,0,0,0.2227,0.2225,0.2223,0.2222,0.2223,0.2219,0.2218,0.2214,0.221,0.2207,0.2199,0.2204,0.2224,0.2226,0.2232,0.2252,0.2269,0.2284,0.2293,0.2299,0.2334,0.24,0.2417,0.2229,0.2229,0.2229,0,0,0.2226,0.2225,0.2223,0.2223,0.2221,0.2228,0.2217,0.2218,0.2234,0.2206,0.2219,0.2225,0.2236,0.2266,0.2277,0.226,0.2355,0.2305,0.2311,0.2343,0.2406,0.2425,0.2441,0.2232,0.2232,0.2231,0,0,0.2225,0.2224,0.2223,0.2227,0.2231,0.2234,0.2238,0.2236,0.2245,0.2257,0.2259,0.2298,0.2292,0.2332,0.2348,0.2409,0.2396,0.2403,0.2476,0.2538,0.2554,0.2569,0.2579,0.2594,0.2407,0.2408,0.2408,0,0.2227,0.2224,0.2224,0.2229,0.2237,0.2241,0.225,0.2264,0.2265,0.2296,0.2268,0.2343,0.2341,0.2428,0.2451,0.2432,0.244,0.243,0.2549,0.2564,0.2578,0.2586,0.2602,0.2411,0.241,0.241,0.241,0,0.2225,0.2228,0.2229,0.224,0.2252,0.2259,0.2283,0.2305,0.2317,0.2345,0.2422,0.2436,0.2493,0.25,0.249,0.2602,0.2564,0.2548,0.2522,0.2601,0.2602,0.2618,0.2415,0.2414,0.2413,0.2412,0,0,0.2212,0.2225,0.2226,0.224,0.2259,0.2272,0.2316,0.2372,0.2431,0.2453,0.2539,0.2594,0.2625,0.265,0.2658,0.2715,0.2801,0.2675,0.2677,0.2682,0.2902,0.2714,0.2712,0.2798,0.2802,0.2805,0.285,0,0.2211,0.222,0.2233,0.2261,0.227,0.2307,0.2355,0.2414,0.2469,0.2552,0.2622,0.2695,0.2675,0.2712,0.2775,0.2798,0.2851,0.2788,0.2831,0.2832,0.2653,0.2729,0.2632,0.2651,0.2865,0.2868,0.287,0,0.22,0.2212,0.2225,0.2284,0.2296,0.2321,0.2423,0.2471,0.2598,0.2649,0.2755,0.28,0.2911,0.2871,0.2981,0.2934,0.294,0.2947,0.2948,0.2776,0.2675,0.2616,0.2672,0.2656,0.2894,0.2892,0.289,0,0.218,0.2213,0.2226,0.2237,0.2299,0.2336,0.2387,0.2501,0.2573,0.2723,0.2787,0.292,0.2972,0.3038,0.3037,0.3024,0.3123,0.3102,0.2944,0.2928,0.286,0.283,0.2909,0.3202,0.3202,0.3202,0.3202,0,0.2165,0.218,0.2218,0.2223,0.2279,0.2331,0.2423,0.2502,0.2637,0.2724,0.2837,0.2912,0.3017,0.3068,0.3082,0.3038,0.3158,0.2981,0.2946,0.2866,0.2838,0.2828,0.2828,0.3203,0.3203,0.3203,0.3202,0,0.2127,0.2147,0.2169,0.2232,0.2261,0.2299,0.2422,0.2497,0.2619,0.2735,0.2782,0.2925,0.2961,0.3018,0.3098,0.3052,0.2966,0.3011,0.2873,0.2818,0.2611,0.2616,0.2456,0.2414,0.286,0.2856,0.2853,0,0.2103,0.2105,0.216,0.2179,0.2202,0.2276,0.2332,0.2472,0.2549,0.2717,0.276,0.2844,0.286,0.2884,0.2852,0.2831,0.2807,0.2708,0.2672,0.2602,0.2587,0.2431,0.2402,0.2606,0.2601,0.2597,0.2593,0,0.2062,0.2076,0.2092,0.2129,0.2174,0.2239,0.2324,0.238,0.2528,0.2591,0.2653,0.2679,0.2693,0.2619,0.2573,0.2557,0.257,0.261,0.2629,0.2468,0.2224,0.2164,0.2541,0.2555,0.2559,0.2562,0.2564,0.2565,0.2025,0.2022,0.2041,0.207,0.2118,0.2164,0.2173,0.225,0.231,0.2356,0.2466,0.2431,0.2462,0.2369,0.2334,0.2241,0.2237,0.2209,0.2244,0.2107,0.1997,0.223,0.213,0.2131,0.2132,0.2133,0.2134,0,0.1968,0.1967,0.1987,0.2,0.2003,0.2071,0.213,0.2101,0.2066,0.2146,0.2141,0.2134,0.2067,0.2091,0.2029,0.1948,0.187,0.1919,0.1797,0.1812,0.2133,0.2055,0.1823,0.1823,0.1823,0.1823,0.1823,0.1823,0.1935,0.1914,0.1913,0.1873,0.1879,0.1844,0.184,0.1798,0.1817,0.1763,0.1745,0.1788,0.1892,0.1882,0.1827,0.1799,0.1738,0.1553,0.1614,0.1981,0.2014,0.2046,0.1977,0.1732,0.1732,0.1211,0.1208,0.1205]},{"header":{"parameterUnit":"m.s-1","parameterCategory":2,"la1":30.2991,"la2":30.254,"lo1":-89.0895,"lo2":-89.0444,"dy":0.0017,"dx":0.0017,"nx":28,"ny":28,"refTime":"2025-04-13T09:00:00:Z","depth":"0","parameterNumber":3,"parameterNumberName":"V-component_of_CURRENTS"},"data":[0,0,0,0,0,0,0,0,0,0,0,0,0,0,0,0,0,0,0,0,0,0,0,0,0,0,0,0,0,0,0,0,0,0,0,0,0,0,0,0,0,0,0,0,0,0,0,0,0,0,0,0,0,0,0,0,0,0,0.0249,0.0249,0,0.0235,0.0235,0.0235,0.022,0.022,0.022,0.022,0.019,0.019,0.0189,0,0,0,0,0,0,0,0,0,0,0,0,0,0.0237,0.0237,0.0249,0.0249,0.0249,0.0235,0.0235,0.0234,0.022,0.022,0.022,0.022,0.019,0.019,0.0189,0,0,0,0,0,0,0,0,0,0,0,0,0,0.0233,0.0237,0.0249,0.0241,0.024,0.0235,0.0235,0.0234,0.0221,0.022,0.022,0.022,0.0191,0.019,0.0189,0.0185,0,0,0.0185,0.0185,0,0,0,0,0,0,0,0,0.0234,0.0234,0.0242,0.0242,0.0241,0.023,0.0219,0.0217,0.0221,0.0227,0.022,0.022,0.0203,0.0201,0.0197,0.0183,0.0182,0.0185,0.0185,0.0184,0.0184,0,0,0,0,0,0,0,0.0234,0.0234,0.0242,0.0242,0.0241,0.0229,0.0228,0.0219,0.0215,0.0226,0.0226,0.0226,0.0202,0.0198,0.0196,0.0182,0.0185,0.0184,0.0184,0.0183,0.0181,0.0182,0,0,0,0,0,0,0.0239,0.0235,0.0243,0.0242,0.0238,0.0229,0.0229,0.0233,0.0215,0.0213,0.0226,0.0225,0.02,0.0198,0.0195,0.0207,0.0184,0.0183,0.0183,0.018,0.0181,0.0182,0,0,0,0,0,0,0.0239,0.024,0.0243,0.0238,0.0238,0.023,0.0235,0.0233,0.0231,0.0215,0.0212,0.0226,0.02,0.0197,0.0191,0.0205,0.0183,0.0182,0.018,0.0181,0.0181,0.022,0,0,0,0,0,0,0.0239,0.0241,0.0245,0.0239,0.0239,0.0246,0.0235,0.0233,0.0232,0.0231,0.0215,0.0212,0.02,0.0193,0.019,0.0203,0.0181,0.0179,0.018,0.0181,0.0218,0.0222,0.0225,0,0,0,0,0,0.0239,0.0249,0.0245,0.0246,0.0245,0.0247,0.0245,0.0238,0.0232,0.0235,0.0224,0.0212,0.0198,0.0193,0.0189,0.0202,0.0178,0.018,0.0181,0.0216,0.0221,0.0225,0,0,0,0,0,0,0.0244,0.0248,0.0244,0.0254,0.0252,0.0245,0.0247,0.0241,0.0234,0.0231,0.0215,0.0212,0.0214,0.0202,0.0196,0.0205,0.0188,0.0189,0.0216,0.022,0.0224,0.0251,0.018,0,0,0,0,0,0.0248,0.0257,0.0255,0.0262,0.0262,0.0254,0.0253,0.0248,0.0242,0.0239,0.0229,0.0219,0.0217,0.0213,0.0206,0.0208,0.0209,0.0216,0.022,0.0223,0.0243,0.026,0.0267,0.0186,0.0186,0.0186,0,0,0.0251,0.0255,0.0258,0.0264,0.026,0.0268,0.0253,0.0255,0.0262,0.0236,0.0242,0.023,0.022,0.0224,0.0224,0.0216,0.0242,0.0224,0.0227,0.0246,0.0262,0.027,0.0277,0.0187,0.0187,0.0187,0,0,0.0266,0.0265,0.0279,0.0281,0.0282,0.0278,0.028,0.0275,0.0274,0.0276,0.0263,0.0267,0.0252,0.0256,0.0255,0.0276,0.0261,0.0266,0.0308,0.0323,0.0331,0.0337,0.033,0.0336,0.0269,0.0269,0.0269,0,0.0268,0.0287,0.0282,0.0296,0.0303,0.0286,0.0302,0.0298,0.0292,0.0303,0.0283,0.0295,0.0275,0.0304,0.0304,0.0288,0.0284,0.029,0.033,0.0336,0.0342,0.0333,0.0339,0.0271,0.027,0.027,0.027,0,0.0295,0.0309,0.0317,0.0332,0.0336,0.0346,0.0343,0.0347,0.0341,0.0346,0.0369,0.0351,0.0368,0.0353,0.033,0.0366,0.0344,0.0332,0.032,0.0353,0.0341,0.0346,0.0274,0.0273,0.0272,0.0272,0,0,0.0306,0.0332,0.0335,0.0353,0.0358,0.0369,0.0381,0.0402,0.0435,0.0421,0.0471,0.0451,0.0454,0.0454,0.0433,0.0436,0.0452,0.04,0.0399,0.0397,0.0472,0.0436,0.0438,0.0444,0.0446,0.0447,0.044,0,0.0329,0.0368,0.0373,0.0408,0.0428,0.0425,0.0449,0.0464,0.0478,0.0519,0.0513,0.0547,0.0489,0.0507,0.0501,0.0473,0.0471,0.0455,0.0438,0.0438,0.0406,0.0445,0.0467,0.0462,0.0445,0.0446,0.0446,0,0.0355,0.038,0.0421,0.0464,0.0474,0.0492,0.0542,0.0563,0.0608,0.0627,0.066,0.0658,0.0671,0.0619,0.0595,0.0585,0.0536,0.0503,0.0502,0.0466,0.0413,0.043,0.0472,0.0451,0.0454,0.0454,0.0453,0,0.0376,0.0416,0.0453,0.0465,0.0506,0.053,0.0553,0.0599,0.0652,0.0709,0.0762,0.0767,0.0789,0.0738,0.0652,0.0631,0.0618,0.0583,0.0507,0.0502,0.0519,0.0514,0.0548,0.0577,0.0577,0.0577,0.0577,0,0.0403,0.0434,0.0468,0.0491,0.0551,0.0564,0.0645,0.0673,0.0754,0.0841,0.0827,0.0894,0.082,0.0797,0.0702,0.0621,0.0658,0.0531,0.0511,0.0529,0.0525,0.0505,0.0477,0.0576,0.0576,0.0577,0.0577,0,0.0422,0.0441,0.0493,0.0543,0.0564,0.0608,0.0707,0.0781,0.0834,0.0952,0.0979,0.1005,0.0967,0.0874,0.0794,0.0697,0.0606,0.0573,0.0584,0.0565,0.0466,0.0439,0.0473,0.0476,0.0501,0.05,0.05,0,0.0435,0.0462,0.0532,0.0577,0.0603,0.0675,0.0744,0.0817,0.0911,0.102,0.1091,0.1089,0.1099,0.0958,0.0796,0.0644,0.0603,0.0554,0.052,0.0483,0.0438,0.0448,0.0449,0.0549,0.0549,0.0549,0.0549,0,0.0463,0.0487,0.0533,0.0626,0.0699,0.0796,0.0897,0.0982,0.1083,0.117,0.1264,0.1271,0.1143,0.1013,0.0798,0.068,0.0565,0.0545,0.0526,0.0502,0.0501,0.0486,0.0509,0.0547,0.0547,0.0548,0.0548,0.0548,0.0485,0.0524,0.0592,0.0683,0.0777,0.0905,0.0994,0.1106,0.1239,0.1372,0.1372,0.1405,0.1231,0.0945,0.0778,0.0543,0.0551,0.0481,0.0456,0.0473,0.0474,0.0478,0.0476,0.0476,0.0476,0.0476,0.0476,0,0.051,0.0564,0.065,0.0766,0.088,0.0925,0.1094,0.1189,0.1327,0.1445,0.1506,0.1481,0.1239,0.1001,0.068,0.0512,0.0471,0.0427,0.0467,0.0474,0.05,0.05,0.0481,0.0481,0.0481,0.0481,0.0481,0.0481,0.0526,0.0602,0.065,0.0828,0.0921,0.1078,0.1175,0.1303,0.1419,0.1575,0.1644,0.1684,0.1581,0.0972,0.062,0.0505,0.0451,0.0402,0.0379,0.0401,0.0406,0.041,0.0405,0.0367,0.0367,0.0406,0.0406,0.0406]}],[{"header":{"parameterUnit":"m.s-1","parameterCategory":2,"la1":30.2991,"la2":30.254,"lo1":-89.0895,"lo2":-89.0444,"dy":0.0017,"dx":0.0017,"nx":28,"ny":28,"refTime":"2025-04-13T09:00:00:Z","depth":"2","parameterNumber":2,"parameterNumberName":"U-component_of_CURRENTS"},"data":[0,0,0,0,0,0,0,0,0,0,0,0,0,0,0,0,0,0,0,0,0,0,0,0,0,0,0,0,0,0,0,0,0,0,0,0,0,0,0,0,0,0,0,0,0,0,0,0,0,0,0,0,0,0,0,0,0,0,0.1937,0.1937,0,0.1926,0.1926,0.1926,0.1917,0.1917,0.1917,0.1917,0.1903,0.1903,0.1902,0,0,0,0,0,0,0,0,0,0,0,0,0,0.1951,0.195,0.1937,0.1937,0.1937,0.1926,0.1926,0.1926,0.1917,0.1917,0.1917,0.1917,0.1903,0.1903,0.1902,0,0,0,0,0,0,0,0,0,0,0,0,0,0.1941,0.195,0.1937,0.1933,0.1932,0.1926,0.1926,0.1925,0.1917,0.1917,0.1917,0.1917,0.1904,0.1903,0.1902,0.1896,0,0,0.19,0.19,0,0,0,0,0,0,0,0,0.1942,0.194,0.1933,0.1933,0.1933,0.1925,0.1926,0.1916,0.1917,0.1921,0.1917,0.1917,0.1911,0.191,0.1905,0.1895,0.1895,0.19,0.19,0.19,0.1899,0,0,0,0,0,0,0,0.1942,0.1941,0.1931,0.1933,0.1933,0.1932,0.193,0.1924,0.1914,0.192,0.192,0.1922,0.1911,0.1906,0.1905,0.1895,0.19,0.19,0.1899,0.1899,0.1951,0.1953,0,0,0,0,0,0,0.1947,0.1941,0.1931,0.1931,0.194,0.1932,0.193,0.1925,0.1914,0.1913,0.1922,0.1921,0.1907,0.1905,0.1904,0.195,0.19,0.1899,0.1899,0.1949,0.1951,0.1953,0,0,0,0,0,0,0.1947,0.1946,0.1932,0.1938,0.1936,0.1931,0.1926,0.1925,0.193,0.1916,0.1914,0.1929,0.1907,0.1905,0.1911,0.1947,0.1899,0.1898,0.1947,0.195,0.1952,0.2007,0,0,0,0,0,0,0.1948,0.1946,0.1948,0.1938,0.1936,0.1935,0.1927,0.1925,0.1931,0.1931,0.1921,0.192,0.1907,0.1912,0.1911,0.1945,0.1898,0.1945,0.1948,0.1951,0.2003,0.2011,0.2018,0,0,0,0,0,0.1948,0.1948,0.1948,0.1948,0.1938,0.1936,0.1935,0.1931,0.1932,0.1935,0.1933,0.192,0.1933,0.1912,0.191,0.1946,0.1943,0.1947,0.1951,0.1999,0.2009,0.2018,0,0,0,0,0,0,0.1955,0.1947,0.1947,0.1945,0.1946,0.1935,0.1939,0.1938,0.1938,0.1941,0.1928,0.1926,0.1951,0.194,0.1918,0.1974,0.1942,0.1946,0.198,0.1989,0.1996,0.2043,0.1897,0,0,0,0,0,0.1958,0.1956,0.1952,0.1952,0.1953,0.1949,0.195,0.1949,0.1947,0.1947,0.1943,0.1948,0.1965,0.1968,0.1973,0.1991,0.2003,0.2019,0.2026,0.2033,0.2072,0.2114,0.213,0.1966,0.1966,0.1966,0,0,0.196,0.1957,0.1955,0.1954,0.1953,0.1958,0.195,0.1955,0.197,0.1946,0.1964,0.197,0.1976,0.2003,0.2015,0.1997,0.2081,0.2038,0.2043,0.2079,0.212,0.2136,0.215,0.1969,0.1969,0.1968,0,0,0.1962,0.1962,0.1961,0.1963,0.1968,0.197,0.1976,0.1975,0.1987,0.2001,0.2004,0.2041,0.2035,0.2068,0.2079,0.2135,0.212,0.2128,0.2202,0.2242,0.2256,0.2269,0.2281,0.2294,0.2131,0.2131,0.2131,0,0.1968,0.1963,0.1963,0.1965,0.1974,0.1979,0.1988,0.2001,0.2005,0.2034,0.2015,0.208,0.2079,0.2152,0.2179,0.2156,0.2161,0.216,0.2253,0.2266,0.2278,0.2287,0.2301,0.2134,0.2134,0.2134,0.2133,0,0.1965,0.1968,0.197,0.1978,0.1989,0.1996,0.2017,0.2039,0.2057,0.208,0.2151,0.2167,0.2212,0.2222,0.2218,0.2314,0.2282,0.2254,0.2228,0.2298,0.2302,0.2316,0.2139,0.2138,0.2137,0.2136,0,0,0.196,0.1967,0.1969,0.1979,0.1998,0.2007,0.2049,0.2095,0.2144,0.2173,0.2248,0.2305,0.2332,0.2353,0.2361,0.2414,0.2492,0.2379,0.2379,0.2389,0.2562,0.2404,0.2402,0.2471,0.2474,0.2477,0.2522,0,0.196,0.1967,0.1977,0.1999,0.2007,0.2038,0.2077,0.2128,0.2179,0.2249,0.2318,0.2389,0.2373,0.2415,0.2464,0.2495,0.2535,0.2482,0.2497,0.2498,0.2348,0.2416,0.2224,0.2237,0.2535,0.2537,0.2539,0,0.1951,0.1961,0.1975,0.2018,0.2027,0.2047,0.2131,0.2172,0.228,0.2329,0.2423,0.2469,0.2582,0.2546,0.2644,0.2604,0.2601,0.2615,0.2615,0.2469,0.2366,0.2222,0.225,0.2561,0.2559,0.2558,0.2556,0,0.1938,0.1964,0.1977,0.1985,0.2031,0.2063,0.2105,0.2199,0.2264,0.2402,0.2465,0.258,0.2635,0.2689,0.2703,0.2686,0.2781,0.2745,0.2601,0.2588,0.2433,0.24,0.2817,0.2817,0.2817,0.2817,0.2817,0,0.1925,0.1937,0.1972,0.1976,0.2022,0.2062,0.2141,0.2206,0.2324,0.2402,0.2509,0.2577,0.2675,0.2724,0.2741,0.2702,0.2799,0.2643,0.2604,0.244,0.2409,0.2699,0.2685,0.2818,0.2818,0.2818,0.2817,0,0.1893,0.1912,0.1929,0.198,0.2008,0.204,0.215,0.2209,0.2323,0.2431,0.2485,0.2599,0.2637,0.2694,0.2762,0.2712,0.2724,0.2675,0.246,0.2393,0.2498,0.2487,0.2548,0.2543,0.2539,0.2536,0.2533,0,0.1872,0.1875,0.1923,0.194,0.1962,0.2029,0.2077,0.2201,0.2262,0.2419,0.2453,0.2539,0.2542,0.2568,0.2528,0.2513,0.2598,0.231,0.2248,0.2523,0.2479,0.2474,0.2468,0.2065,0.2058,0.2053,0.2049,0,0.1834,0.1847,0.186,0.1901,0.1941,0.1994,0.2067,0.2113,0.2243,0.2306,0.2356,0.2382,0.2378,0.2253,0.2216,0.2187,0.2303,0.2194,0.2574,0.2138,0.2064,0.2021,0.2033,0.2001,0.2006,0.201,0.2012,0.2014,0.1803,0.1798,0.1818,0.1845,0.189,0.1918,0.1923,0.1987,0.2035,0.2074,0.2168,0.211,0.212,0.1933,0.1864,0.1806,0.1964,0.1895,0.1914,0.1938,0.185,0.177,0.1635,0.1638,0.164,0.1642,0.1643,0,0.1752,0.1749,0.1768,0.1774,0.1774,0.1843,0.1878,0.1841,0.1806,0.1861,0.1854,0.1677,0.1569,0.1578,0.1412,0.139,0.1413,0.133,0.1366,0.1413,0.1455,0.1344,0.0995,0.0993,0.0991,0.0989,0,0,0.1722,0.1701,0.1697,0.1652,0.1662,0.1624,0.1614,0.1561,0.1551,0.1471,0.1418,0.1508,0.1538,0.1265,0.1215,0.1079,0.1243,0.1026,0.1548,0.1638,0.1678,0.1778,0.1659,0,0,0,0,0]},{"header":{"parameterUnit":"m.s-1","parameterCategory":2,"la1":30.2991,"la2":30.254,"lo1":-89.0895,"lo2":-89.0444,"dy":0.0017,"dx":0.0017,"nx":28,"ny":28,"refTime":"2025-04-13T09:00:00:Z","depth":"2","parameterNumber":3,"parameterNumberName":"V-component_of_CURRENTS"},"data":[0,0,0,0,0,0,0,0,0,0,0,0,0,0,0,0,0,0,0,0,0,0,0,0,0,0,0,0,0,0,0,0,0,0,0,0,0,0,0,0,0,0,0,0,0,0,0,0,0,0,0,0,0,0,0,0,0,0,0.0171,0.0171,0,0.0156,0.0156,0.0156,0.0145,0.0145,0.0145,0.0145,0.0119,0.0118,0.0117,0,0,0,0,0,0,0,0,0,0,0,0,0,0.0163,0.0164,0.0172,0.0171,0.0171,0.0156,0.0156,0.0156,0.0145,0.0145,0.0145,0.0145,0.0119,0.0118,0.0117,0,0,0,0,0,0,0,0,0,0,0,0,0,0.0159,0.0164,0.0172,0.0165,0.0164,0.0156,0.0156,0.0156,0.0145,0.0145,0.0145,0.0145,0.0119,0.0118,0.0117,0.011,0,0,0.0114,0.0113,0,0,0,0,0,0,0,0,0.0159,0.0159,0.0166,0.0165,0.0165,0.0153,0.0143,0.014,0.0145,0.0151,0.0145,0.0145,0.013,0.0128,0.0124,0.0109,0.0108,0.0114,0.0113,0.0112,0.0112,0,0,0,0,0,0,0,0.0159,0.0159,0.0164,0.0166,0.0165,0.0153,0.0153,0.0143,0.014,0.0151,0.015,0.015,0.0129,0.0125,0.0123,0.0107,0.0114,0.0113,0.0112,0.0112,0.0106,0.0106,0,0,0,0,0,0,0.0165,0.016,0.0165,0.0164,0.0163,0.0154,0.0153,0.0156,0.014,0.0138,0.015,0.015,0.0127,0.0124,0.0122,0.0134,0.0112,0.0111,0.0111,0.0105,0.0106,0.0106,0,0,0,0,0,0,0.0165,0.0165,0.0166,0.0162,0.0161,0.0154,0.0158,0.0156,0.0155,0.014,0.0137,0.0152,0.0127,0.0124,0.0119,0.0132,0.0111,0.011,0.0104,0.0105,0.0106,0.0144,0,0,0,0,0,0,0.0164,0.0166,0.017,0.0163,0.0162,0.0167,0.0158,0.0156,0.0155,0.0155,0.014,0.0138,0.0126,0.0121,0.0118,0.013,0.0109,0.0104,0.0105,0.0106,0.0142,0.0145,0.0149,0,0,0,0,0,0.0164,0.0173,0.017,0.0171,0.0168,0.0168,0.0166,0.016,0.0156,0.0158,0.0149,0.0138,0.0124,0.012,0.0117,0.0129,0.0103,0.0105,0.0106,0.014,0.0145,0.0149,0,0,0,0,0,0,0.0171,0.0173,0.0169,0.0178,0.0175,0.0166,0.0168,0.0163,0.0157,0.0156,0.0141,0.0138,0.0139,0.0128,0.0123,0.013,0.0114,0.0114,0.0141,0.0145,0.0149,0.0176,0.0108,0,0,0,0,0,0.0174,0.0182,0.0179,0.0185,0.0185,0.0177,0.0175,0.0171,0.0165,0.0162,0.0153,0.0144,0.014,0.0138,0.013,0.0131,0.0129,0.0138,0.0141,0.0144,0.0165,0.0172,0.0179,0.011,0.011,0.011,0,0,0.0177,0.018,0.0184,0.0187,0.0183,0.019,0.0176,0.0177,0.0184,0.016,0.0166,0.0155,0.0143,0.0147,0.0147,0.0139,0.0159,0.0146,0.0149,0.0167,0.0174,0.0181,0.0187,0.011,0.011,0.011,0,0,0.0191,0.0191,0.0203,0.0205,0.0205,0.02,0.0203,0.0197,0.0197,0.0198,0.0186,0.0189,0.0174,0.0177,0.0174,0.0193,0.0176,0.0183,0.0224,0.0231,0.0237,0.0243,0.0232,0.0237,0.0186,0.0186,0.0186,0,0.0195,0.0212,0.0205,0.0219,0.0225,0.0208,0.0223,0.0219,0.0213,0.0224,0.0206,0.0214,0.0195,0.0219,0.0221,0.0204,0.0197,0.0208,0.0237,0.0242,0.0247,0.0236,0.024,0.0188,0.0188,0.0188,0.0188,0,0.022,0.0233,0.024,0.0253,0.0257,0.0266,0.0263,0.0267,0.0262,0.0265,0.0285,0.0267,0.0279,0.0266,0.0246,0.0275,0.0254,0.0239,0.0229,0.0257,0.0242,0.0246,0.0191,0.019,0.019,0.0189,0,0,0.0231,0.0254,0.0257,0.0276,0.0279,0.0289,0.0301,0.0319,0.0349,0.0335,0.0379,0.036,0.036,0.0358,0.0338,0.0339,0.0349,0.0304,0.0303,0.0298,0.0352,0.0326,0.0327,0.0336,0.0337,0.0338,0.0322,0,0.0254,0.0291,0.0294,0.0328,0.0348,0.0344,0.0365,0.0378,0.0389,0.0424,0.0416,0.0446,0.0392,0.0409,0.0398,0.037,0.0363,0.0354,0.0323,0.0322,0.0299,0.0332,0.0322,0.0307,0.0325,0.0326,0.0326,0,0.0279,0.0303,0.0343,0.0383,0.0392,0.0409,0.0455,0.0474,0.051,0.0527,0.0552,0.0547,0.0556,0.0507,0.0474,0.0469,0.0417,0.0384,0.0383,0.0355,0.0304,0.0284,0.0312,0.0332,0.0332,0.0331,0.0331,0,0.0301,0.0339,0.0376,0.0387,0.0425,0.0448,0.0469,0.0508,0.0558,0.0605,0.0653,0.0648,0.0664,0.061,0.0526,0.0506,0.0484,0.0447,0.0375,0.0371,0.0358,0.0351,0.043,0.043,0.043,0.043,0.043,0,0.0328,0.0358,0.0391,0.0414,0.0472,0.0483,0.0559,0.0583,0.0654,0.0734,0.0715,0.0771,0.0691,0.0662,0.057,0.0487,0.0515,0.0399,0.0376,0.0367,0.0362,0.0383,0.0377,0.0429,0.0429,0.0429,0.0429,0,0.0348,0.0366,0.0416,0.0464,0.0485,0.0528,0.0622,0.0691,0.0737,0.0844,0.087,0.0876,0.083,0.0735,0.0647,0.0553,0.0473,0.043,0.0415,0.0392,0.0341,0.0338,0.0361,0.036,0.036,0.0359,0.0359,0,0.0362,0.0388,0.0456,0.05,0.0525,0.0596,0.0663,0.073,0.0815,0.091,0.0971,0.0956,0.0948,0.08,0.0643,0.0494,0.0468,0.0382,0.0346,0.0364,0.0339,0.0337,0.0335,0.0332,0.0331,0.0331,0.033,0,0.039,0.0413,0.0459,0.055,0.0622,0.0716,0.0811,0.0889,0.098,0.1055,0.1128,0.1122,0.098,0.0822,0.0613,0.0502,0.0406,0.0366,0.0411,0.035,0.0335,0.0311,0.0311,0.0326,0.0326,0.0327,0.0327,0.0327,0.0414,0.0452,0.0519,0.0607,0.0699,0.082,0.0904,0.1005,0.1123,0.1228,0.1217,0.1195,0.1019,0.074,0.0556,0.0363,0.0381,0.0298,0.0301,0.0304,0.0302,0.0287,0.0267,0.0268,0.0268,0.0268,0.0268,0,0.0442,0.0493,0.0576,0.0688,0.0798,0.0844,0.0999,0.1078,0.1196,0.1271,0.1306,0.1119,0.0935,0.0732,0.0449,0.0283,0.0262,0.0214,0.0228,0.0234,0.0239,0.0234,0.0181,0.0181,0.018,0.0179,0,0,0.0459,0.0533,0.0577,0.0747,0.0839,0.0989,0.1077,0.1177,0.125,0.1301,0.1285,0.1244,0.0997,0.0769,0.0534,0.0366,0.0338,0.0321,0.0408,0.0459,0.0466,0.0303,0.0305,0,0,0,0,0]}],[{"header":{"parameterUnit":"m.s-1","parameterCategory":2,"la1":30.2991,"la2":30.254,"lo1":-89.0895,"lo2":-89.0444,"dy":0.0017,"dx":0.0017,"nx":28,"ny":28,"refTime":"2025-04-13T09:00:00:Z","depth":"4","parameterNumber":2,"parameterNumberName":"U-component_of_CURRENTS"},"data":[0,0,0,0,0,0,0,0,0,0,0,0,0,0,0,0,0,0,0,0,0,0,0,0,0,0,0,0,0,0,0,0,0,0,0,0,0,0,0,0,0,0,0,0,0,0,0,0,0,0,0,0,0,0,0,0,0,0,0.1094,0.1094,0,0.1101,0.1101,0.11,0.1125,0.1126,0.1127,0.1128,0.115,0.115,0.115,0,0,0,0,0,0,0,0,0,0,0,0,0,0.1092,0.1092,0.1094,0.1094,0.1095,0.1101,0.1101,0.11,0.1125,0.1126,0.1127,0.1128,0.115,0.115,0.115,0,0,0,0,0,0,0,0,0,0,0,0,0,0.1094,0.1092,0.1094,0.1109,0.1111,0.1101,0.1101,0.11,0.1125,0.1126,0.1127,0.1128,0.115,0.115,0.115,0.1126,0,0,0.1149,0.1149,0,0,0,0,0,0,0,0,0.1093,0.1093,0.1107,0.1108,0.111,0.1115,0.1108,0.111,0.1125,0.1117,0.1128,0.1129,0.114,0.1141,0.1137,0.1127,0.1128,0.1149,0.1149,0.1149,0.1149,0,0,0,0,0,0,0,0.1093,0.1093,0.1095,0.1107,0.1109,0.1112,0.1114,0.1109,0.1121,0.1118,0.112,0.1124,0.1141,0.1137,0.1137,0.1128,0.1149,0.1149,0.1149,0.1149,0.1165,0.1166,0,0,0,0,0,0,0.1096,0.1093,0.1094,0.1095,0.1107,0.1112,0.1113,0.1111,0.1121,0.1124,0.1123,0.1125,0.1136,0.1137,0.1138,0.1189,0.1149,0.1149,0.1149,0.1164,0.1165,0.1166,0,0,0,0,0,0,0.1096,0.1096,0.1094,0.1096,0.1097,0.1111,0.1108,0.111,0.1134,0.1125,0.1128,0.1148,0.1137,0.1139,0.1158,0.1187,0.1149,0.1149,0.1164,0.1165,0.1165,0.1239,0,0,0,0,0,0,0.1095,0.1095,0.1108,0.1096,0.1097,0.1105,0.1107,0.111,0.1134,0.1137,0.1147,0.1148,0.1138,0.1158,0.1158,0.1186,0.1149,0.1163,0.1164,0.1165,0.1236,0.1243,0.1248,0,0,0,0,0,0.1095,0.1102,0.1108,0.1109,0.1109,0.1105,0.1106,0.1118,0.1134,0.1144,0.1155,0.115,0.1164,0.1159,0.1158,0.1187,0.1163,0.1164,0.1165,0.1234,0.1241,0.1248,0,0,0,0,0,0,0.111,0.1105,0.1112,0.1118,0.1121,0.1111,0.1127,0.1133,0.1148,0.1164,0.1156,0.1158,0.1188,0.117,0.1164,0.1192,0.1162,0.1163,0.1215,0.1222,0.1227,0.123,0.1148,0,0,0,0,0,0.1118,0.1124,0.1118,0.1128,0.1133,0.1136,0.1143,0.115,0.1156,0.1165,0.1173,0.1178,0.1185,0.1192,0.1192,0.1204,0.1208,0.122,0.1226,0.1232,0.1231,0.1271,0.1281,0.117,0.117,0.117,0,0,0.1127,0.1127,0.1131,0.1133,0.1139,0.1144,0.1143,0.1161,0.117,0.1164,0.1193,0.1204,0.1193,0.1213,0.1224,0.1208,0.1266,0.1233,0.1238,0.1235,0.1273,0.1284,0.1294,0.117,0.117,0.117,0,0,0.1137,0.1149,0.1155,0.116,0.1174,0.1172,0.1184,0.119,0.1202,0.1224,0.1227,0.1253,0.126,0.1259,0.1258,0.1291,0.1299,0.1298,0.1331,0.137,0.138,0.1389,0.1417,0.1428,0.1299,0.1299,0.1299,0,0.1154,0.1154,0.1159,0.1167,0.117,0.1188,0.1192,0.1204,0.1219,0.1228,0.1245,0.128,0.1277,0.1299,0.1315,0.1307,0.1332,0.131,0.138,0.1389,0.1397,0.1423,0.1434,0.1303,0.1302,0.1302,0.1302,0,0.1157,0.1171,0.1178,0.1189,0.1194,0.1206,0.1213,0.1232,0.1257,0.127,0.1315,0.1328,0.1349,0.1358,0.135,0.1402,0.1403,0.139,0.1369,0.1413,0.1437,0.1448,0.1308,0.1307,0.1306,0.1305,0,0,0.1155,0.1176,0.1182,0.1183,0.1206,0.12,0.1224,0.1236,0.1266,0.1304,0.1343,0.1369,0.1404,0.1404,0.1414,0.1448,0.1529,0.1453,0.1453,0.1491,0.1627,0.1475,0.1471,0.1546,0.1548,0.155,0.1626,0,0.1158,0.117,0.1177,0.1188,0.1189,0.1205,0.1224,0.1244,0.1283,0.1332,0.1365,0.1419,0.1414,0.1456,0.1489,0.1532,0.1559,0.151,0.1568,0.1569,0.1437,0.1478,0.1556,0.1633,0.1636,0.1637,0.1639,0,0.1149,0.1158,0.117,0.1178,0.1181,0.1197,0.1224,0.1252,0.1319,0.1359,0.1424,0.1464,0.1534,0.1525,0.1617,0.1598,0.1613,0.1634,0.1637,0.1473,0.1434,0.1575,0.1657,0.1655,0.1654,0.1653,0.1651,0,0.1122,0.1141,0.1148,0.1154,0.1179,0.1187,0.1212,0.1268,0.1302,0.1404,0.1453,0.1536,0.1594,0.1648,0.1678,0.1677,0.1765,0.1761,0.1627,0.1618,0.1702,0.1691,0.1801,0.1801,0.18,0.18,0.18,0,0.1099,0.1105,0.1143,0.1146,0.1161,0.1187,0.1231,0.1271,0.1355,0.1403,0.1486,0.1533,0.1633,0.1681,0.171,0.1693,0.1788,0.1636,0.1626,0.173,0.1722,0.171,0.1698,0.1803,0.1802,0.1802,0.1801,0,0.1061,0.1092,0.11,0.1136,0.1152,0.117,0.1234,0.1264,0.1362,0.1434,0.1473,0.1564,0.1631,0.1682,0.1762,0.1707,0.1723,0.1676,0.1783,0.1777,0.1551,0.1543,0.1572,0.1567,0.1563,0.156,0.1557,0,0.1037,0.1045,0.1094,0.1101,0.112,0.116,0.1185,0.1269,0.1304,0.1429,0.1448,0.1538,0.1581,0.1585,0.1644,0.167,0.1631,0.1624,0.1585,0.154,0.1528,0.1526,0.1523,0.1551,0.155,0.1549,0.1548,0,0.0989,0.1026,0.1037,0.1065,0.1086,0.1099,0.1144,0.1163,0.1261,0.1358,0.1398,0.1422,0.1466,0.1511,0.151,0.1527,0.1637,0.1582,0.1591,0.1554,0.1514,0.1506,0.1508,0.1534,0.1536,0.1537,0.1538,0,0.0961,0.0963,0.0996,0.1004,0.1026,0.1014,0.105,0.1077,0.1127,0.1264,0.1273,0.1367,0.1457,0.1433,0.145,0.1437,0.1423,0.1378,0.1397,0.1413,0.1317,0.124,0.1169,0,0,0,0,0,0.0923,0.0915,0.0921,0.0916,0.0931,0.0952,0.1,0.1042,0.1144,0.114,0.1206,0.1243,0.1262,0.1309,0.1265,0.1362,0.1417,0.1301,0.1372,0.1456,0.1472,0.1368,0,0,0,0,0,0,0.0895,0.0904,0.09,0.0838,0.0826,0.0834,0.0868,0.0937,0.0942,0.1057,0.1081,0.1163,0.1206,0.1286,0.1247,0.1255,0.1269,0.1359,0.1355,0.1447,0.1462,0.1475,0.1373,0,0,0,0,0]},{"header":{"parameterUnit":"m.s-1","parameterCategory":2,"la1":30.2991,"la2":30.254,"lo1":-89.0895,"lo2":-89.0444,"dy":0.0017,"dx":0.0017,"nx":28,"ny":28,"refTime":"2025-04-13T09:00:00:Z","depth":"4","parameterNumber":3,"parameterNumberName":"V-component_of_CURRENTS"},"data":[0,0,0,0,0,0,0,0,0,0,0,0,0,0,0,0,0,0,0,0,0,0,0,0,0,0,0,0,0,0,0,0,0,0,0,0,0,0,0,0,0,0,0,0,0,0,0,0,0,0,0,0,0,0,0,0,0,0,0.0077,0.0077,0,0.0064,0.0064,0.0064,0.0059,0.0059,0.0059,0.0059,0.0041,0.0041,0.004,0,0,0,0,0,0,0,0,0,0,0,0,0,0.0076,0.0077,0.0077,0.0077,0.0077,0.0064,0.0064,0.0064,0.0059,0.0059,0.0059,0.0059,0.0042,0.0041,0.004,0,0,0,0,0,0,0,0,0,0,0,0,0,0.0071,0.0077,0.0077,0.0073,0.0073,0.0064,0.0064,0.0063,0.0059,0.0059,0.0059,0.0059,0.0042,0.0041,0.004,0.0032,0,0,0.0038,0.0037,0,0,0,0,0,0,0,0,0.0071,0.0071,0.0074,0.0074,0.0073,0.0064,0.0057,0.0053,0.0059,0.0063,0.0059,0.0059,0.0049,0.0047,0.0044,0.0031,0.003,0.0037,0.0037,0.0037,0.0036,0,0,0,0,0,0,0,0.0072,0.0071,0.0071,0.0074,0.0073,0.0065,0.0064,0.0056,0.0055,0.0063,0.0063,0.0062,0.0048,0.0044,0.0043,0.003,0.0037,0.0037,0.0036,0.0036,0.0028,0.0028,0,0,0,0,0,0,0.0076,0.0072,0.0072,0.0071,0.0073,0.0065,0.0064,0.0066,0.0055,0.0054,0.0062,0.0062,0.0046,0.0044,0.0043,0.0054,0.0037,0.0036,0.0035,0.0028,0.0028,0.0029,0,0,0,0,0,0,0.0076,0.0076,0.0072,0.0071,0.007,0.0065,0.0067,0.0066,0.0066,0.0055,0.0053,0.0064,0.0046,0.0044,0.004,0.0052,0.0035,0.0035,0.0028,0.0028,0.0028,0.0062,0,0,0,0,0,0,0.0076,0.0076,0.0079,0.0072,0.0071,0.0072,0.0067,0.0065,0.0065,0.0065,0.0055,0.0054,0.0046,0.0041,0.0039,0.0051,0.0034,0.0027,0.0028,0.0028,0.0061,0.0064,0.0066,0,0,0,0,0,0.0076,0.0081,0.0079,0.0079,0.0075,0.0072,0.0071,0.0067,0.0065,0.0067,0.006,0.0054,0.0043,0.0041,0.0038,0.005,0.0027,0.0028,0.0028,0.0059,0.0063,0.0066,0,0,0,0,0,0,0.0081,0.008,0.0079,0.0083,0.008,0.0072,0.0073,0.0069,0.0065,0.0065,0.0055,0.0053,0.0054,0.0045,0.0043,0.0049,0.0035,0.0035,0.006,0.0063,0.0066,0.0078,0.0033,0,0,0,0,0,0.0084,0.0088,0.0084,0.0087,0.0087,0.008,0.0078,0.0076,0.007,0.0069,0.0063,0.0057,0.0054,0.0053,0.0046,0.0048,0.0038,0.0054,0.0057,0.006,0.0068,0.0064,0.0067,0.0031,0.0031,0.0031,0,0,0.0086,0.0087,0.0089,0.0089,0.0086,0.0091,0.008,0.0079,0.0086,0.0067,0.0073,0.0064,0.0055,0.0059,0.006,0.0055,0.0063,0.0061,0.0063,0.007,0.0065,0.0069,0.0072,0.0031,0.0031,0.0031,0,0,0.0095,0.0094,0.0102,0.0103,0.0102,0.0098,0.01,0.0094,0.0095,0.0095,0.0087,0.0088,0.0078,0.008,0.0079,0.0093,0.0076,0.0088,0.0116,0.0112,0.0115,0.0118,0.0101,0.0102,0.0092,0.0093,0.0093,0,0.0098,0.011,0.0103,0.0113,0.0118,0.0104,0.0116,0.0113,0.0107,0.0116,0.0102,0.0104,0.0092,0.0108,0.0111,0.0101,0.0089,0.0105,0.0116,0.0119,0.0121,0.0103,0.0104,0.0094,0.0094,0.0094,0.0094,0,0.0115,0.0125,0.013,0.014,0.0143,0.0149,0.0147,0.0151,0.0147,0.0149,0.016,0.0143,0.0149,0.0142,0.013,0.0144,0.0127,0.0118,0.0109,0.0127,0.0107,0.0107,0.0097,0.0096,0.0096,0.0095,0,0,0.0121,0.0139,0.0142,0.0157,0.016,0.0167,0.0179,0.0193,0.0216,0.02,0.0225,0.0214,0.0208,0.0206,0.0191,0.0184,0.018,0.0159,0.0158,0.0145,0.0161,0.0146,0.0145,0.0172,0.0173,0.0173,0.0138,0,0.0138,0.0166,0.0169,0.0197,0.0212,0.0212,0.0231,0.0242,0.0248,0.0265,0.025,0.0265,0.0232,0.0238,0.0225,0.0195,0.0184,0.019,0.0144,0.0142,0.013,0.0146,0.0174,0.0138,0.0138,0.0138,0.0138,0,0.0155,0.0174,0.0205,0.0241,0.0248,0.0264,0.0302,0.0319,0.0338,0.0345,0.0351,0.0335,0.0327,0.0293,0.0252,0.0256,0.0213,0.0182,0.018,0.0158,0.0129,0.0118,0.0138,0.0138,0.0138,0.0138,0.0138,0,0.0169,0.0201,0.0231,0.024,0.0273,0.0295,0.0318,0.0348,0.0382,0.0401,0.0419,0.0402,0.0395,0.0346,0.0271,0.0265,0.0214,0.02,0.0145,0.0143,0.0151,0.0148,0.0171,0.0171,0.0171,0.0171,0.0171,0,0.0188,0.0212,0.0243,0.0261,0.0311,0.0325,0.0388,0.0407,0.0448,0.0493,0.0465,0.0479,0.0407,0.0363,0.0293,0.0218,0.0231,0.0155,0.0139,0.0163,0.0163,0.015,0.0148,0.017,0.017,0.0171,0.0171,0,0.0199,0.0216,0.0257,0.03,0.032,0.0359,0.0436,0.0484,0.0511,0.0563,0.057,0.0542,0.0486,0.0401,0.0317,0.0251,0.0179,0.0146,0.0173,0.0157,0.0103,0.0103,0.0093,0.0093,0.0092,0.0092,0.0091,0,0.0207,0.0228,0.0287,0.0322,0.0345,0.041,0.0463,0.0514,0.0563,0.06,0.0618,0.0579,0.0544,0.0414,0.0321,0.0193,0.0167,0.0122,0.0118,0.0113,0.0098,0.0099,0.01,0.009,0.009,0.009,0.009,0,0.0225,0.0246,0.0283,0.0355,0.0412,0.0483,0.0552,0.0589,0.0646,0.0666,0.0664,0.0598,0.0528,0.0419,0.0314,0.022,0.0152,0.0116,0.0117,0.0112,0.011,0.0095,0.0096,0.0088,0.0088,0.0088,0.0088,0,0.0242,0.027,0.0322,0.0388,0.046,0.0529,0.0568,0.0619,0.0667,0.0694,0.0689,0.0615,0.0575,0.0433,0.0339,0.0245,0.0219,0.0178,0.0175,0.0176,0.0205,0.0214,0.0218,0,0,0,0,0,0.0257,0.0293,0.0354,0.0427,0.05,0.0545,0.0618,0.0651,0.0693,0.0697,0.0697,0.0632,0.05,0.0443,0.0347,0.032,0.0195,0.0202,0.0145,0.0077,0.0079,0.0098,0,0,0,0,0,0,0.0269,0.0321,0.0353,0.0448,0.0505,0.059,0.0638,0.0666,0.0668,0.0686,0.0618,0.0598,0.0469,0.0556,0.0343,0.0315,0.0262,0.0147,0.0144,0.0076,0.0078,0.0079,0.0099,0,0,0,0,0]}]]